Tracking 30995 objects as of 7-Jul-2025
HD Live streaming from Space Station
objects crossing your sky now

HAMMER

Track HAMMER now!
10-day predictions


NORAD ID: 59148
Int'l Code: 2024-043BC
Perigee: 461.3 km
Apogee: 472.1 km
Inclination: 97.5 °
Period: 93.8 minutes
Semi major axis: 6837 km
RCS: Unknown
Launch date: March 4, 2024
Source: Spain (SPN)
Launch site: AIR FORCE WESTERN TEST RANGE (AFWTR)
Your satellite tracking list
MONITOR-3
Track 1 satellite(s)




NASA's NSSDC Master Catalog

Two Line Element Set (TLE):
1 59148U 24043BC  25187.89144314  .00007786  00000-0  22813-3 0  9994
2 59148  97.5108 320.4505 0007889 349.4430  10.6646 15.35470032 74584
Source of the keplerian elements: AFSPC